DC1RS Weather Reports


Display with metric or nautical units.
time (UTC)temp
F
wind
direction
speed
MPH
gust
MPH
rain 1hr
in
rain 24hr
in
rain mn
in
humidity
%
barometer
mb
20260507060421 54 265 6.0 8.0 0.00 0.00 0.00 79 1012.5
20260507060141 54 264 2.0 6.0 0.00 0.00 0.00 78 1012.4
20260507055351 54 239 2.0 6.0 0.00 0.00 0.00 79 1012.6
20260507054850 54 206 1.0 3.0 0.00 0.00 0.00 79 1012.5
20260507054321 53 251 0.0 4.0 0.00 0.00 0.00 78 1012.2
20260507053750 53 220 5.0 8.0 0.00 0.00 0.00 79 1012.6
20260507053441 53 217 2.0 3.0 0.00 0.00 0.00 81 1012.4
20260507052650 53 221 2.0 4.0 0.00 0.00 0.00 81 1012.3
20260507052150 53 199 2.0 3.0 0.00 0.00 0.00 86 1012.3
20260507051651 52 141 0.0 1.0 0.00 0.00 0.00 86 1012.4
20260507051121 52 244 2.0 3.0 0.00 0.00 0.00 84 1012.3
20260507050841 52 151 0.0 1.0 0.00 0.00 0.00 85 1012.2
20260507050051 53 176 1.0 2.0 0.00 0.00 0.00 85 1012.3
20260507045521 52 125 1.0 2.0 0.00 0.00 0.00 86 1012.4
20260507045021 52 112 1.0 2.0 0.00 0.00 0.00 86 1012.1
20260507044451 52 116 2.0 2.0 0.00 0.00 0.00 88 1012.2
20260507043921 51 127 2.0 3.0 0.00 0.00 0.00 90 1012.0
20260507043642 51 127 2.0 3.0 0.00 0.00 0.00 91 1011.9
20260507042851 50 105 1.0 1.0 0.00 0.00 0.00 91 1011.9
20260507042321 49 104 0.0 1.0 0.00 0.00 0.00 92 1011.7
20260507041751 49 110 1.0 1.0 0.00 0.00 0.00 92 1011.6
20260507041251 49 225 0.0 0.0 0.00 0.00 0.00 92 1011.5
20260507041011 49 211 0.0 0.0 0.00 0.00 0.00 91 1011.2
20260507040250 49 210 0.0 0.0 0.00 0.00 0.00 91 1011.2
20260507035750 49 261 0.0 0.0 0.00 0.00 0.00 91 1011.3
20260507035220 49 204 0.0 0.0 0.00 0.00 0.00 92 1011.2
20260507034651 49 205 0.0 2.0 0.00 0.00 0.00 92 1011.2
20260507034342 49 175 1.0 1.0 0.00 0.00 0.00 93 1011.3
20260507033551 49 150 0.0 1.0 0.00 0.00 0.00 93 1011.1
20260507033051 49 150 0.0 1.0 0.00 0.00 0.00 94 1011.2
20260507032550 49 148 0.0 1.0 0.00 0.00 0.00 94 1011.2
20260507032311 49 142 1.0 2.0 0.00 0.00 0.00 94 1011.1
20260507031521 49 127 1.0 2.0 0.00 0.00 0.00 94 1011.2
20260507030951 49 100 0.0 0.0 0.00 0.00 0.00 93 1011.1
20260507030421 49 100 0.0 1.0 0.00 0.00 0.00 94 1010.8
20260507025921 49 130 0.0 1.0 0.00 0.00 0.00 94 1011.1
20260507025641 49 135 1.0 1.0 0.00 0.00 0.00 93 1011.1
20260507024851 49 138 0.0 0.0 0.00 0.00 0.00 92 1011.1
20260507024321 49 138 0.0 0.0 0.00 0.00 0.00 92 1011.1
20260507023751 49 154 1.0 1.0 0.00 0.00 0.00 91 1011.1
20260507023251 49 131 2.0 2.0 0.00 0.00 0.00 90 1011.2
20260507022721 49 240 0.0 1.0 0.00 0.00 0.00 90 1011.0
20260507022440 50 242 0.0 1.0 0.00 0.00 0.00 89 1011.0
20260507021651 49 213 1.0 2.0 0.00 0.00 0.00 90 1010.9
20260507021121 49 231 1.0 1.0 0.00 0.00 0.00 90 1010.5
20260507020621 50 214 1.0 1.0 0.00 0.00 0.00 89 1010.3
20260507020121 50 242 0.0 1.0 0.00 0.00 0.00 89 1010.5
20260507015811 50 236 0.0 1.0 0.00 0.00 0.00 89 1010.3
20260507015051 50 231 0.0 1.0 0.00 0.00 0.00 89 1010.4
20260507014521 50 217 2.0 3.0 0.00 0.00 0.00 89 1010.4
20260507013951 50 204 1.0 2.0 0.00 0.00 0.00 89 1010.2
20260507013421 50 205 0.0 1.0 0.00 0.00 0.00 89 1010.1
20260507012851 50 218 0.0 1.0 0.00 0.00 0.00 89 1010.0
20260507012541 50 215 2.0 3.0 0.00 0.00 0.00 89 1010.2
20260507011821 51 217 0.0 1.0 0.00 0.00 0.00 89 1010.1
20260507011251 51 276 0.0 1.0 0.00 0.00 0.00 88 1009.9
20260507010750 51 278 0.0 1.0 0.00 0.00 0.00 88 1009.8
20260507010221 51 283 0.0 0.0 0.00 0.00 0.00 87 1009.9
20260507005912 51 284 0.0 1.0 0.00 0.00 0.00 87 1009.9
20260507005121 51 302 0.0 1.0 0.00 0.00 0.00 86 1009.9
20260507004621 51 295 0.0 1.0 0.00 0.00 0.00 86 1010.0
20260507004051 51 254 2.0 6.0 0.00 0.00 0.00 86 1010.0
20260507003522 52 257 4.0 6.0 0.00 0.00 0.00 86 1009.8
20260507002951 52 277 3.0 6.0 0.00 0.00 0.00 87 1009.8
20260507001921 52 247 3.0 4.0 0.00 0.00 0.00 86 1009.5
20260507001421 52 264 2.0 6.0 0.00 0.00 0.00 86 1009.8
20260507000921 53 226 1.0 4.0 0.00 0.00 0.00 86 1009.4
20260507000421 53 263 1.0 3.0 0.00 0.00 0.00 86 1009.5
20260507000141 53 242 0.0 3.0 0.00 0.00 0.00 86 1009.6
20260506235421 53 249 2.0 4.0 0.00 0.00 0.00 85 1009.6
20260506234850 54 265 2.0 3.0 0.00 0.00 0.00 85 1009.5
20260506234321 54 254 4.0 9.0 0.00 0.00 0.00 85 1009.4
20260506233750 54 239 2.0 8.0 0.00 0.00 0.00 84 1009.6
20260506233221 54 269 5.0 10.0 0.00 0.00 0.00 85 1009.2
20260506232650 54 290 4.0 6.0 0.00 0.00 0.00 86 1009.2
20260506232150 54 285 4.0 8.0 0.00 0.00 0.00 86 1009.1
20260506231621 54 222 5.0 8.0 0.00 0.00 0.00 87 1009.2
20260506231311 54 259 6.0 9.0 0.00 0.00 0.00 87 1009.3
20260506230551 54 242 5.0 8.0 0.00 0.00 0.00 87 1009.4
20260506230051 54 263 5.0 11.0 0.00 0.00 0.00 87 1009.4
20260506225521 54 282 5.0 9.0 0.00 0.00 0.00 87 1009.2
20260506225021 55 229 4.0 6.0 0.00 0.00 0.00 87 1009.4
20260506224710 55 241 4.0 8.0 0.00 0.00 0.00 86 1009.2
20260506223921 55 263 5.0 9.0 0.00 0.00 0.00 86 1009.0
20260506223421 55 253 5.0 8.0 0.00 0.00 0.00 86 1008.9
20260506222850 55 266 7.0 13.0 0.00 0.00 0.00 87 1008.9
20260506222321 55 246 5.0 8.0 0.00 0.00 0.00 87 1008.9
20260506222010 55 241 8.0 11.0 0.00 0.00 0.00 87 1009.0
20260506221221 55 278 8.0 11.0 0.00 0.00 0.00 88 1008.8
20260506220651 55 259 7.0 10.0 0.00 0.00 0.00 89 1008.6
20260506220150 55 245 6.0 8.0 0.00 0.00 0.00 88 1008.7
20260506215620 55 261 5.0 10.0 0.00 0.00 0.18 88 1008.5
20260506215311 55 263 3.0 4.0 0.00 0.00 0.18 89 1008.5
20260506214550 55 263 3.0 7.0 0.00 0.00 0.18 89 1008.5
20260506214050 55 224 2.0 6.0 0.00 0.00 0.18 88 1008.3
20260506213521 55 264 4.0 4.0 0.00 0.00 0.18 88 1008.3
20260506212950 55 242 3.0 7.0 0.00 0.00 0.18 88 1008.0
20260506212710 55 276 2.0 11.0 0.00 0.00 0.18 88 1008.1
20260506211920 55 245 6.0 9.0 0.00 0.00 0.18 87 1008.3
20260506211420 55 267 3.0 6.0 0.00 0.00 0.18 86 1008.3
20260506210850 55 274 4.0 7.0 0.00 0.00 0.18 86 1008.1
20260506210350 55 271 4.0 9.0 0.00 0.00 0.18 86 1008.0
20260506210112 55 277 3.0 9.0 0.00 0.00 0.18 86 1008.0
20260506205320 55 259 5.0 13.0 0.00 0.00 0.18 86 1007.9
20260506204820 56 292 6.0 8.0 0.00 0.00 0.18 86 1007.9
20260506204250 56 290 5.0 9.0 0.00 0.00 0.18 86 1007.7
20260506203750 56 296 2.0 13.0 0.00 0.00 0.18 85 1007.8
20260506203511 56 252 9.0 14.0 0.00 0.00 0.18 85 1007.9
20260506202721 56 243 7.0 10.0 0.00 0.00 0.18 85 1007.7
20260506202220 56 202 6.0 11.0 0.00 0.00 0.18 85 1007.8
20260506201650 56 240 13.0 16.0 0.00 0.00 0.18 85 1007.6
20260506201121 56 266 12.0 15.0 0.00 0.00 0.18 85 1007.3
20260506200550 57 313 8.0 13.0 0.00 0.00 0.18 85 1007.5
20260506200050 57 310 9.0 18.0 0.00 0.00 0.18 85 1007.3
20260506195740 57 253 6.0 14.0 0.00 0.00 0.18 86 1007.1
20260506194950 57 249 8.0 14.0 0.00 0.00 0.18 86 1007.2
20260506194450 57 288 8.0 17.0 0.00 0.00 0.18 86 1007.0
20260506193920 57 243 10.0 13.0 0.00 0.00 0.18 85 1006.8
20260506193420 57 257 5.0 15.0 0.00 0.00 0.18 84 1006.8
20260506193111 57 271 6.0 10.0 0.00 0.00 0.18 84 1006.4
20260506192321 57 204 7.0 9.0 0.00 0.00 0.18 87 1006.4
20260506191750 57 256 5.0 9.0 0.00 0.00 0.18 88 1006.1
20260506191510 57 247 5.0 13.0 0.00 0.00 0.18 89 1006.0
20260506190721 57 277 7.0 8.0 0.00 0.00 0.18 89 1005.8
20260506190220 57 279 7.0 17.0 0.00 0.00 0.18 89 1005.8
20260506185650 57 251 7.0 9.0 0.00 0.00 0.18 91 1005.3
20260506185340 56 272 1.0 2.0 0.00 0.00 0.18 90 1005.1
20260506184550 56 261 3.0 4.0 0.00 0.00 0.18 91 1004.7
20260506184050 56 299 1.0 2.0 0.00 0.00 0.18 91 1004.7
20260506183520 56 4 2.0 3.0 0.00 0.00 0.18 90 1004.7
20260506183020 56 6 1.0 2.0 0.00 0.00 0.18 91 1004.7
20260506182711 56 48 2.0 7.0 0.00 0.00 0.18 90 1004.6
20260506181920 56 66 4.0 8.0 0.01 0.00 0.18 91 1004.4
20260506181420 56 38 7.0 9.0 0.02 0.00 0.18 90 1003.9
20260506180851 56 40 5.0 7.0 0.03 0.00 0.18 91 1004.2
20260506180321 56 334 3.0 4.0 0.05 0.00 0.18 90 1004.5
20260506180011 56 318 2.0 4.0 0.08 0.00 0.18 89 1004.9
20260506175251 57 340 2.0 6.0 0.12 0.00 0.18 90 1004.9
20260506174721 57 339 1.0 3.0 0.14 0.00 0.18 89 1004.8
20260506174221 57 11 4.0 4.0 0.15 0.00 0.18 89 1005.1
20260506173650 57 16 2.0 3.0 0.16 0.00 0.18 88 1004.7
20260506173342 56 337 1.0 7.0 0.17 0.00 0.18 88 1004.8
20260506172551 57 332 5.0 7.0 0.17 0.00 0.18 87 1004.2
20260506172051 57 332 3.0 10.0 0.17 0.00 0.17 88 1004.4
20260506171521 57 316 4.0 17.0 0.16 0.00 0.17 86 1004.5
20260506170951 58 306 13.0 23.0 0.15 0.00 0.15 86 1004.9
20260506170909 58 274 17.0 22.0 0.13 0.00 0.14 86 1005.0
20260506170141 59 240 14.0 22.0 0.10 0.00 0.11 85 1005.1
20260506165420 62 266 20.0 32.0 0.06 0.00 0.06 81 1004.9
20260506164851 63 239 9.0 16.0 0.04 0.00 0.04 71 1004.3
20260506164321 64 285 6.0 16.0 0.03 0.00 0.03 68 1003.9
20260506163751 65 243 4.0 11.0 0.02 0.00 0.02 66 1003.3
20260506163511 67 320 4.0 10.0 0.01 0.00 0.02 64 1003.0
20260506162721 68 340 8.0 9.0 0.00 0.00 0.01 60 1003.0
20260506162221 68 270 7.0 14.0 0.00 0.00 0.00 54 1003.0
20260506161651 69 297 5.0 11.0 0.00 0.00 0.00 52 1002.7
20260506161122 69 297 8.0 13.0 0.00 0.00 0.00 52 1002.2
20260506160551 69 314 7.0 13.0 0.00 0.00 0.00 51 1002.1
20260506160310 70 345 6.0 9.0 0.00 0.00 0.00 52 1002.1
20260506155521 70 301 6.0 8.0 0.00 0.00 0.00 51 1001.9
20260506155021 70 329 7.0 9.0 0.00 0.00 0.00 51 1001.9
20260506154451 71 334 5.0 10.0 0.00 0.00 0.00 50 1001.6
20260506153921 71 344 5.0 7.0 0.00 0.00 0.00 51 1002.1
20260506153610 71 3 6.0 9.0 0.00 0.00 0.00 49 1002.1
20260506152851 72 318 4.0 9.0 0.00 0.00 0.00 49 1002.2
20260506152321 72 7 2.0 7.0 0.00 0.00 0.00 49 1002.4
20260506151821 72 317 3.0 10.0 0.00 0.00 0.00 47 1002.5
20260506151251 72 357 6.0 9.0 0.00 0.00 0.00 47 1002.4
20260506151010 73 335 2.0 8.0 0.00 0.00 0.00 47 1002.6
20260506150442 74 34 4.0 6.0 0.00 0.00 0.00 44 1002.6
20260506145651 75 37 7.0 8.0 0.00 0.00 0.00 41 1002.7
20260506145121 74 3 2.0 4.0 0.00 0.00 0.00 42 1002.8
20260506144621 75 1 2.0 4.0 0.00 0.00 0.00 42 1002.7
20260506144312 75 32 3.0 7.0 0.00 0.00 0.00 43 1003.0
20260506143551 76 223 0.0 3.0 0.00 0.00 0.00 41 1002.9
20260506143051 76 313 3.0 3.0 0.00 0.00 0.00 42 1002.8
20260506142521 74 312 3.0 6.0 0.00 0.00 0.00 42 1003.2
20260506142021 74 277 3.0 6.0 0.00 0.00 0.00 42 1003.1
20260506141711 74 216 0.0 1.0 0.00 0.00 0.00 43 1003.3
20260506140950 73 123 0.0 2.0 0.00 0.00 0.00 44 1003.4
20260506140450 72 133 2.0 6.0 0.00 0.00 0.00 46 1003.4
20260506135921 72 92 5.0 7.0 0.00 0.00 0.00 45 1003.5
20260506135421 73 46 3.0 4.0 0.00 0.00 0.00 43 1003.2
20260506135111 73 41 4.0 8.0 0.00 0.00 0.00 46 1003.5
20260506134321 73 324 1.0 2.0 0.00 0.00 0.00 45 1003.7
20260506133751 73 180 2.0 3.0 0.00 0.00 0.00 44 1003.6
20260506133251 74 79 5.0 7.0 0.00 0.00 0.00 44 1003.6
20260506132751 74 92 0.0 3.0 0.00 0.00 0.00 43 1003.7
20260506132512 74 114 4.0 7.0 0.00 0.00 0.00 45 1003.6
20260506131721 73 121 3.0 6.0 0.00 0.00 0.00 44 1003.6
20260506131221 73 172 4.0 7.0 0.00 0.00 0.00 45 1003.9
20260506130720 72 129 4.0 6.0 0.00 0.00 0.00 47 1004.0
20260506130151 72 142 8.0 10.0 0.00 0.00 0.00 45 1004.2
20260506125651 72 133 6.0 9.0 0.00 0.00 0.00 44 1004.0
20260506125342 73 121 4.0 13.0 0.00 0.00 0.00 45 1004.0
20260506124621 72 134 5.0 9.0 0.00 0.00 0.00 45 1004.0
20260506124051 72 138 6.0 10.0 0.00 0.00 0.00 47 1004.0
20260506123521 71 36 1.0 4.0 0.00 0.00 0.00 44 1004.2
20260506122951 72 121 0.0 2.0 0.00 0.00 0.00 45 1004.5
20260506122710 72 129 2.0 3.0 0.00 0.00 0.00 47 1004.2
20260506121921 71 132 0.0 4.0 0.00 0.00 0.00 48 1004.5
20260506121351 71 86 6.0 9.0 0.00 0.00 0.00 46 1005.0
20260506120851 72 109 6.0 10.0 0.00 0.00 0.00 45 1005.1
20260506120321 71 145 5.0 7.0 0.00 0.00 0.00 46 1005.2
20260506115820 71 86 1.0 7.0 0.00 0.00 0.00 46 1005.0
20260506115250 72 132 3.0 4.0 0.00 0.00 0.00 44 1005.2
20260506114721 72 49 2.0 4.0 0.00 0.00 0.00 46 1005.3
20260506114220 72 39 9.0 13.0 0.00 0.00 0.00 44 1005.3
20260506113911 73 91 8.0 10.0 0.00 0.00 0.00 44 1005.4
20260506113121 73 133 2.0 11.0 0.00 0.00 0.00 43 1005.6
20260506112550 73 144 8.0 11.0 0.00 0.00 0.00 47 1005.6
20260506112051 72 33 3.0 4.0 0.00 0.00 0.00 49 1005.7
20260506111521 72 154 0.0 2.0 0.00 0.00 0.00 47 1005.9
20260506111211 71 123 4.0 7.0 0.00 0.00 0.00 48 1005.9
20260506110421 71 141 3.0 4.0 0.00 0.00 0.00 47 1006.0
20260506105921 71 139 4.0 6.0 0.00 0.00 0.00 47 1006.2
20260506105421 70 129 4.0 9.0 0.00 0.00 0.00 51 1006.1
20260506104851 71 113 2.0 7.0 0.00 0.00 0.00 50 1006.1
20260506104321 71 294 1.0 2.0 0.00 0.00 0.00 49 1006.2
20260506103821 71 147 4.0 6.0 0.00 0.00 0.00 47 1006.3
20260506103321 70 140 3.0 8.0 0.00 0.00 0.00 49 1006.4
20260506103041 69 263 0.0 2.0 0.00 0.00 0.00 50 1006.6
20260506102251 69 221 0.0 3.0 0.00 0.00 0.00 50 1006.4
20260506101751 69 179 2.0 3.0 0.00 0.00 0.00 48 1006.5
20260506101221 70 117 3.0 7.0 0.00 0.00 0.00 49 1006.4
20260506100651 70 101 1.0 3.0 0.00 0.00 0.00 50 1006.4
20260506100411 70 150 2.0 2.0 0.00 0.00 0.00 55 1006.3
20260506095651 69 132 4.0 6.0 0.00 0.00 0.00 51 1006.5
20260506095121 68 141 1.0 2.0 0.00 0.00 0.00 55 1006.5
20260506094621 68 109 3.0 7.0 0.00 0.00 0.00 56 1006.6
20260506094051 67 102 1.0 7.0 0.00 0.00 0.00 56 1006.7
20260506093521 67 173 4.0 7.0 0.00 0.00 0.00 57 1006.9
20260506093241 66 246 1.0 8.0 0.00 0.00 0.00 59 1007.1
20260506092451 67 169 3.0 4.0 0.00 0.00 0.00 59 1007.2
20260506091921 66 174 1.0 2.0 0.00 0.00 0.00 61 1006.9
20260506091421 66 249 2.0 4.0 0.00 0.00 0.00 62 1007.1
20260506090851 64 83 2.0 4.0 0.00 0.00 0.00 64 1007.1
20260506090541 65 166 4.0 9.0 0.00 0.00 0.00 63 1007.2
20260506085821 65 124 6.0 8.0 0.00 0.00 0.00 64 1007.1
20260506085251 65 101 6.0 9.0 0.00 0.00 0.00 65 1007.0
20260506084721 65 51 4.0 4.0 0.00 0.00 0.00 65 1007.1
20260506084411 66 181 3.0 8.0 0.00 0.00 0.00 64 1007.2
20260506083621 65 122 6.0 8.0 0.00 0.00 0.00 66 1007.3
20260506083051 65 127 6.0 10.0 0.00 0.00 0.00 65 1007.3
20260506082521 65 134 4.0 11.0 0.00 0.00 0.00 66 1007.3
20260506081951 65 128 6.0 11.0 0.00 0.00 0.00 68 1007.5
20260506081711 64 168 4.0 6.0 0.00 0.00 0.00 68 1007.2
20260506080950 64 116 3.0 8.0 0.00 0.00 0.00 67 1007.5
20260506080450 64 90 4.0 10.0 0.00 0.00 0.00 69 1007.4
20260506072821 61 76 1.0 6.0 0.00 0.00 0.00 72 1007.3
20260506072251 61 116 3.0 4.0 0.00 0.00 0.00 72 1007.6
20260506071751 60 125 0.0 4.0 0.00 0.00 0.00 75 1007.5
20260506071223 60 97 3.0 6.0 0.00 0.00 0.00 74 1007.6
20260506070940 60 90 1.0 2.0 0.00 0.00 0.00 74 1007.9
20260506070151 61 79 3.0 6.0 0.00 0.00 0.00 73 1007.7
20260506062211 58 185 1.0 3.0 0.00 0.00 0.00 81 1007.8
20260506061451 58 212 2.0 3.0 0.00 0.00 0.00 85 1007.9
20260506060950 57 174 2.0 3.0 0.00 0.00 0.00 84 1007.7